Torna al catalogo

STARLINK-5243

AttivoComunicazioniVLEO
NORAD 54167·PAYLOAD·🇺🇸 United States

Lanciato Oct 28, 2022 da Vandenberg Space Force Base

Loading…

Prossimi Passaggi (prossime 24 ore)

TLE

AggiornatoSource: CelesTrak SupGP

Epoca: Sep 14, 2026, 21:04 UTC

1 54167C 22141L   26257.87826389  .00722940  00000+0  31055-1 0  2571
2 54167  53.1608 243.4706 0001243  94.0400  83.4020 15.21798863    19

Traccia STARLINK-5243 in tempo reale con AllMySat

Download on the App Store